COSMOS 1989 (ETALON 1)

Last updated on Thu Jul 03 2025 00:03:34 GMT+0000 (Coordinated Universal Time)

1 19751U 89001C 25183.47703106 -.00000047 00000+0 00000+0 0 9998 2 19751 64.7422 84.1736 0023460 216.8733 314.7529 2.13156160283913
UTC large
Height (km)
Speed (km/s)
/
Latitude / Longitude
Inclination (degrees)
Orbital Period (minutes)
Azimuth
Elevation
Range (km)
Doppler Factor

Next 0 passes for location: London (51.5072 / 0.1276)

Sorry there are no passes over London.